Location: Newark
(39.9581°N, 97.2014°W)
Time: 17:20:34
(UTC+00:00)

Hubble Space Telescope - Visible Passes

Search period start: 26 January 2020 00:00
Search period end: 05 February 2020 00:00
Orbit: 536 x 540 km, 28.5° (Epoch: 25 January)

Date Brightness Start Highest point End Pass type
(mag) Time Alt. Az. Time Alt. Az. Time Alt. Az.
31 Jan 3.6 11:47:34 10° SSE 11:47:53 10° SSE 11:48:13 10° SSE visible
01 Feb 3.4 11:35:59 11° S 11:37:08 12° SSE 11:38:36 10° SE visible
02 Feb 3.2 11:26:07 13° S 11:26:23 13° SSE 11:28:19 10° SE visible
02 Feb 3.1 13:04:13 10° SW 13:06:51 16° S 13:09:28 10° SE visible
03 Feb 3.2 11:16:11 14° SSE 11:16:11 14° SSE 11:17:52 10° SE visible
03 Feb 3.1 12:53:34 10° SW 12:56:06 16° S 12:58:40 10° SE visible
04 Feb 3.4 11:06:13 13° SSE 11:06:13 13° SSE 11:07:20 10° SE visible
04 Feb 3.1 12:42:56 10° SW 12:45:22 15° S 12:47:48 10° SSE visible
